Monroe, NC

7:14 AM EDT on July 23, 2017 (GMT -0400)
Monroe

Weather History for KEQY - April, 2014

Change the Weather History Date:

Wednesday, April 23, 2014

  Actual Average (KCLT) Record (KCLT)
Temperature  
Mean Temperature 64 °F -  
Max Temperature 77 °F 72 °F 91 °F (1960)
Min Temperature 52 °F 50 °F 35 °F (1986)
Growing Degree Days 14 (Base 50)    
Moisture  
Dew Point 45 °F    
Average Humidity 68    
Maximum Humidity 97    
Minimum Humidity 15    
Precipitation  
Precipitation 0.00 in - - ()
Sea Level Pressure  
Sea Level Pressure 29.82 in    
Wind  
Wind Speed 5 mph (West)    
Max Wind Speed 13 mph    
Max Gust Speed 21 mph    
Visibility 5 miles    
Events Fog    
Averages and records for this station are not official NWS values.
T = Trace of Precipitation, MM = Missing Value Source: NWS Daily Summary

Daily Weather History Graph

Daily Weather History Graph

Search for Another Location

Airport or City:

Trip Planner

Search our weather history database for the weather conditions in past years. The results will help you decide how hot, cold, wet, or windy it might be!

Date:

Astronomy

Apr. 23, 2014 Rise Set
Actual Time 6:40 AM EDT 8:01 PM EDT
Civil Twilight 6:14 AM EDT 8:28 PM EDT
Nautical Twilight 5:42 AM EDT 8:59 PM EDT
Astronomical Twilight 5:09 AM EDT 9:33 PM EDT
Moon 2:57 AM EDT 2:21 PM EDT
Length of Visible Light 14h 13m
Length of Day
13h 20m
Waning Crescent, 35% of the Moon is Illuminated
Apr 23
Waning Crescent
Apr 29
New
May 6
First Quarter
May 14
Full
May 21
Last Quarter

Hourly Weather History & Observations

Time (EDT) Temp. Dew Point Humidity Pressure Visibility Wind Dir Wind Speed Gust Speed Precip Events Conditions
12:37 AM 60.1 °F 57.9 °F 93% 29.76 in 4.0 mi WSW 5.8 mph - N/A   Clear
12:53 AM 59.0 °F 57.0 °F 93% 29.77 in 2.5 mi WSW 4.6 mph - N/A   Clear
1:22 AM 57.9 °F 57.0 °F 97% 29.76 in 2.0 mi WSW 4.6 mph - N/A   Partly Cloudy
1:29 AM 57.9 °F 57.0 °F 97% 29.76 in 1.8 mi WSW 4.6 mph - N/A   Partly Cloudy
1:34 AM 57.9 °F 55.9 °F 93% 29.76 in 0.8 mi WSW 5.8 mph - N/A   Mist
1:41 AM 57.0 °F 55.9 °F 96% 29.76 in 0.5 mi WSW 6.9 mph - N/A Fog Fog
1:53 AM 57.0 °F 55.9 °F 96% 29.76 in 0.5 mi WSW 4.6 mph - N/A Fog Fog
2:18 AM 57.0 °F 55.0 °F 93% 29.75 in 0.2 mi WSW 6.9 mph - N/A Fog Fog
2:53 AM 57.0 °F 55.9 °F 96% 29.75 in 0.2 mi SW 4.6 mph - N/A Fog Fog
3:53 AM 55.0 °F 54.0 °F 96% 29.76 in 0.5 mi WSW 4.6 mph - N/A Fog Fog
4:03 AM 55.0 °F 54.0 °F 96% 29.75 in 1.0 mi West 4.6 mph - N/A   Mist
4:07 AM 55.9 °F 54.0 °F 93% 29.75 in 2.0 mi West 3.5 mph - N/A   Partly Cloudy
4:18 AM 55.9 °F 54.0 °F 93% 29.75 in 1.0 mi SW 3.5 mph - N/A   Mist
4:23 AM 55.0 °F 54.0 °F 96% 29.76 in 0.5 mi SW 3.5 mph - N/A Fog Fog
4:31 AM 54.0 °F 53.1 °F 97% 29.76 in 0.2 mi SW 5.8 mph - N/A Fog Fog
4:43 AM 55.0 °F 54.0 °F 96% 29.76 in 1.0 mi West 4.6 mph - N/A   Mist
4:53 AM 55.9 °F 55.0 °F 97% 29.78 in 7.0 mi WNW 4.6 mph - N/A   Partly Cloudy
5:40 AM 54.0 °F 52.0 °F 93% 29.77 in 1.5 mi SSW 3.5 mph - N/A   Clear
5:42 AM 53.1 °F 52.0 °F 96% 29.77 in 1.0 mi Calm Calm - N/A   Mist
5:53 AM 54.0 °F 52.0 °F 93% 29.80 in 1.5 mi WSW 4.6 mph - N/A   Clear
5:56 AM 54.0 °F 52.0 °F 93% 29.77 in 3.0 mi West 3.5 mph - N/A   Clear
6:53 AM 53.1 °F 52.0 °F 96% 29.82 in 3.0 mi WSW 3.5 mph - N/A   Clear
7:11 AM 52.0 °F 51.1 °F 97% 29.81 in 2.0 mi WSW 3.5 mph - N/A   Clear
7:23 AM 53.1 °F 51.1 °F 93% 29.81 in 5.0 mi West 4.6 mph - N/A   Clear
7:53 AM 55.9 °F 53.1 °F 90% 29.85 in 7.0 mi West 3.5 mph - N/A   Clear
8:53 AM 62.1 °F 48.0 °F 60% 29.87 in 10.0 mi NNW 10.4 mph - N/A   Clear
9:53 AM 66.0 °F 37.0 °F 34% 29.89 in 10.0 mi NNW 12.7 mph 20.7 mph N/A   Clear
10:53 AM 68.0 °F 37.0 °F 32% 29.90 in 10.0 mi NNW 6.9 mph - N/A   Clear
11:53 AM 70.0 °F 35.1 °F 28% 29.90 in 10.0 mi WNW 4.6 mph - N/A   Clear
12:53 PM 72.0 °F 35.1 °F 26% 29.89 in 10.0 mi West 8.1 mph 18.4 mph N/A   Clear
1:53 PM 73.9 °F 27.0 °F 18% 29.88 in 10.0 mi NNW 8.1 mph - N/A   Clear
2:53 PM 75.9 °F 25.0 °F 15% 29.87 in 10.0 mi WNW 10.4 mph 19.6 mph N/A   Clear
3:53 PM 75.9 °F 25.0 °F 15% 29.85 in 10.0 mi Variable 6.9 mph - N/A   Clear
4:53 PM 75.9 °F 24.1 °F 15% 29.85 in 10.0 mi NNW 4.6 mph - N/A   Clear
5:53 PM 77.0 °F 26.1 °F 15% 29.85 in 10.0 mi NW 8.1 mph - N/A   Clear
6:53 PM 75.0 °F 26.1 °F 16% 29.87 in 10.0 mi North 6.9 mph - N/A   Clear
7:53 PM 66.9 °F 30.0 °F 25% 29.89 in 10.0 mi NNE 4.6 mph - N/A   Clear
8:53 PM 59.0 °F 37.9 °F 46% 29.92 in 10.0 mi Calm Calm - N/A   Clear
9:53 PM 62.1 °F 30.0 °F 30% 29.95 in 10.0 mi North 8.1 mph - N/A   Clear
10:53 PM 62.1 °F 28.0 °F 28% 29.97 in 10.0 mi NNE 8.1 mph - N/A   Clear
11:53 PM 57.9 °F 30.0 °F 35% 30.00 in 10.0 mi NNE 8.1 mph - N/A   Clear